{"data":{"norad_id":58175,"intl_designator":"2023-167A","name":"STARLINK-30753","alt_names":[],"object_type":"PAYLOAD","status":"ACTIVE","operator":null,"country":"US","launch_date":"2023-10-30","launch_site_code":"AFETR","launch_vehicle":null,"mission":null,"orbit_class":"UNKNOWN","rcs_meters":null,"size_class":null,"mass_kg":null,"dimensions":null,"purposes":["comms"],"wikipedia_slug":null,"has_3d_model":false,"image_url":null,"decayed_at":null,"tle_current":{"epoch":"2026-09-19T08:42:01.419552Z","epoch_age_seconds":238737,"freshness":"STALE","line1":"1 58175U 23167A   26262.36251643  .00001392  00000+0  60117-4 0  9996","line2":"2 58175  43.0090 129.7477 0002417 251.4017 108.6572 15.27575000160609","mean_motion":15.27575,"eccentricity":0.0002417,"inclination_deg":43.009,"raan_deg":129.7477,"arg_perigee_deg":251.4017,"mean_anomaly_deg":108.6572,"bstar":6.0117e-5,"rev_number":16060,"period_min":94.267057263964,"perigee_km":481.40571558113,"apogee_km":484.72242017734,"semimajor_km":6861.2010678792,"source":"CELESTRAK","updated_at":"2026-09-21T09:00:33.825687Z"}}}